Location: Berkeley
(37.8716°N, 122.2727°W)
Time: 08:05:26
(UTC-07:00)

ARIANE 6 FM1 Upper Stage - Visible Passes

Search period start: 10 May 2026 00:00
Search period end: 20 May 2026 00:00
Orbit: 526 x 602 km, 62.0° (Epoch: 10 May)

Date Brightness Start Highest point End Pass type
(mag) Time Alt. Az. Time Alt. Az. Time Alt. Az.
10 May 4.0 20:49:28 10° NW 20:53:05 34° WSW 20:56:42 10° S visible
11 May 4.7 20:49:21 10° WNW 20:52:28 22° WSW 20:55:35 10° SSW visible
12 May 5.2 20:49:35 10° WNW 20:51:49 15° WSW 20:54:04 10° SSW visible
